Weather History for Alpine, TX

Change the Weather History Date:

Thursday, September 5, 2013

  Actual Average (KMRF) Record (KMRF)
Temperature  
Mean Temperature 76 °F -  
Max Temperature 89 °F 81 °F 93 °F (2000)
Min Temperature 64 °F 55 °F 44 °F (2010)
Cooling Degree Days 11    
Growing Degree Days 26 (Base 50)    
Moisture  
Dew Point 54 °F    
Average Humidity 47    
Maximum Humidity 70    
Minimum Humidity 28    
Precipitation  
Precipitation 0.00 in - - ()
Sea Level Pressure  
Sea Level Pressure 30.28 in    
Wind  
Wind Speed 5 mph (ESE)    
Max Wind Speed 16 mph    
Max Gust Speed 25 mph    
Visibility 10 miles    
Events      
Averages and records for this station are not official NWS values.
T = Trace of Precipitation, MM = Missing Value Source: NWS Daily Summary

Daily Weather History Graph

Daily Weather History Graph

Search for Another Location

Airport:

Trip Planner

Search our weather history database for the weather conditions in past years. The results will help you decide how hot, cold, wet, or windy it might be!

Date:

Astronomy

Sep. 05, 2013 Rise Set
Actual Time 7:33 AM CDT 8:12 PM CDT
Civil Twilight 7:09 AM CDT 8:36 PM CDT
Nautical Twilight 6:40 AM CDT 9:05 PM CDT
Astronomical Twilight 6:11 AM CDT 9:34 PM CDT
Moon 7:43 AM CDT (9/5) 8:12 PM CDT (9/5)
Length of Visible Light 13h 27m
Length of Day
12h 38m
New Moon, 0% of the Moon is Illuminated
Sep 5
New Moon
Sep 12
First Quarter
Sep 19
Full
Sep 26
Last Quarter
Oct 4
New

Hourly Weather History & Observations

Time (CDT) Temp. Heat Index Dew Point Humidity Pressure Visibility Wind Dir Wind Speed Gust Speed Precip Events Conditions
12:15 AM 71.4 °F - 56.8 °F 60% 30.29 in 10.0 mi Calm Calm - N/A   Clear
12:35 AM 72.9 °F - 56.3 °F 56% 30.29 in 10.0 mi ESE 4.6 mph - N/A   Clear
12:55 AM 72.7 °F - 55.4 °F 55% 30.29 in 10.0 mi SE 3.5 mph - N/A   Clear
1:15 AM 72.7 °F - 54.9 °F 53% 30.29 in 10.0 mi South 5.8 mph - N/A   Clear
1:35 AM 70.2 °F - 55.4 °F 59% 30.29 in 10.0 mi WNW 4.6 mph - N/A   Clear
1:55 AM 72.3 °F - 54.5 °F 53% 30.28 in 10.0 mi SE 5.8 mph - N/A   Clear
2:15 AM 69.3 °F - 54.5 °F 59% 30.28 in 10.0 mi North 3.5 mph - N/A   Clear
2:35 AM 70.7 °F - 53.8 °F 55% 30.27 in 10.0 mi Calm Calm - N/A   Clear
2:55 AM 70.5 °F - 53.8 °F 55% 30.28 in 10.0 mi East 4.6 mph - N/A   Clear
3:15 AM 70.3 °F - 54.0 °F 56% 30.27 in 10.0 mi ESE 4.6 mph - N/A   Clear
3:35 AM 67.1 °F - 52.9 °F 60% 30.28 in 10.0 mi Calm Calm - N/A   Clear
3:55 AM 69.8 °F - 54.1 °F 57% 30.28 in 10.0 mi South 3.5 mph - N/A   Clear
4:15 AM 65.1 °F - 53.1 °F 65% 30.27 in 10.0 mi Calm Calm - N/A   Clear
4:35 AM 64.9 °F - 52.9 °F 65% 30.27 in 10.0 mi Calm Calm - N/A   Clear
4:55 AM 66.7 °F - 53.6 °F 63% 30.27 in 10.0 mi SW 4.6 mph - N/A   Clear
5:15 AM 67.8 °F - 55.0 °F 64% 30.27 in 10.0 mi South 5.8 mph - N/A   Clear
5:35 AM 68.2 °F - 55.4 °F 64% 30.27 in 10.0 mi SSW 4.6 mph - N/A   Clear
5:55 AM 66.9 °F - 55.0 °F 66% 30.27 in 10.0 mi Calm Calm - N/A   Clear
6:15 AM 65.8 °F - 55.2 °F 69% 30.27 in 10.0 mi WSW 4.6 mph - N/A   Clear
6:35 AM 66.2 °F - 55.2 °F 68% 30.28 in 10.0 mi Calm Calm - N/A   Clear
6:55 AM 66.6 °F - 55.2 °F 67% 30.28 in 10.0 mi Calm Calm - N/A   Clear
7:15 AM 65.7 °F - 54.7 °F 68% 30.29 in 10.0 mi Calm Calm - N/A   Scattered Clouds
7:35 AM 65.3 °F - 55.2 °F 70% 30.29 in 10.0 mi Calm Calm - N/A   Scattered Clouds
7:55 AM 66.2 °F - 55.4 °F 68% 30.29 in 10.0 mi WNW 4.6 mph - N/A   Scattered Clouds
8:15 AM 68.0 °F - 55.4 °F 64% 30.30 in 10.0 mi Calm Calm - N/A   Clear
8:35 AM 70.0 °F - 55.6 °F 60% 30.31 in 10.0 mi Calm Calm - N/A   Clear
8:55 AM 71.2 °F - 55.9 °F 58% 30.31 in 10.0 mi Calm Calm - N/A   Clear
9:15 AM 72.5 °F - 55.8 °F 56% 30.32 in 10.0 mi Calm Calm - N/A   Clear
9:35 AM 74.3 °F - 56.5 °F 54% 30.32 in 10.0 mi Calm Calm - N/A   Clear
9:55 AM 75.7 °F - 56.8 °F 52% 30.32 in 10.0 mi East 4.6 mph - N/A   Clear
10:15 AM 76.3 °F - 57.2 °F 52% 30.32 in 10.0 mi ESE 3.5 mph - N/A   Clear
10:35 AM 78.1 °F - 57.0 °F 48% 30.32 in 10.0 mi WNW 3.5 mph - N/A   Clear
10:55 AM 80.2 °F 80.5 °F 56.8 °F 45% 30.32 in 10.0 mi East 9.2 mph - N/A   Clear
11:15 AM 81.3 °F 81.1 °F 56.5 °F 42% 30.32 in 10.0 mi NE 8.1 mph - N/A   Scattered Clouds
11:35 AM 82.8 °F 81.9 °F 54.9 °F 38% 30.32 in 10.0 mi East 13.8 mph 17.3 mph N/A   Scattered Clouds
11:55 AM 84.6 °F 83.4 °F 55.4 °F 37% 30.32 in 10.0 mi ESE 11.5 mph 25.3 mph N/A   Scattered Clouds
12:15 PM 82.2 °F 81.4 °F 54.3 °F 38% 30.32 in 10.0 mi ESE 9.2 mph - N/A   Clear
12:35 PM 82.4 °F 81.4 °F 54.0 °F 37% 30.32 in 10.0 mi ESE 9.2 mph 18.4 mph N/A   Scattered Clouds
12:55 PM 84.2 °F 82.8 °F 54.1 °F 35% 30.31 in 10.0 mi ENE 4.6 mph - N/A   Mostly Cloudy
1:15 PM 84.0 °F 82.6 °F 53.6 °F 35% 30.30 in 10.0 mi East 11.5 mph - N/A   Scattered Clouds
1:35 PM 84.7 °F 83.3 °F 54.3 °F 35% 30.30 in 10.0 mi East 9.2 mph - N/A   Scattered Clouds
1:55 PM 83.8 °F 82.4 °F 53.8 °F 35% 30.29 in 10.0 mi East 5.8 mph - N/A   Scattered Clouds
2:15 PM 84.2 °F 82.6 °F 53.1 °F 34% 30.28 in 10.0 mi Calm Calm - N/A   Mostly Cloudy
2:35 PM 85.3 °F - 52.3 °F 32% 30.27 in 10.0 mi SE 8.1 mph 16.1 mph N/A   Mostly Cloudy
2:55 PM 88.3 °F - 52.3 °F 29% 30.27 in 10.0 mi SE 9.2 mph - N/A   Scattered Clouds
3:15 PM 85.1 °F - 52.2 °F 32% 30.26 in 10.0 mi SE 6.9 mph 10.4 mph N/A   Mostly Cloudy
3:35 PM 87.6 °F - 52.7 °F 30% 30.25 in 10.0 mi SE 4.6 mph 16.1 mph N/A   Mostly Cloudy
3:55 PM 88.3 °F - 52.5 °F 29% 30.24 in 10.0 mi SE 10.4 mph 16.1 mph N/A   Mostly Cloudy
4:15 PM 88.0 °F - 51.6 °F 29% 30.24 in 10.0 mi ESE 11.5 mph 17.3 mph N/A   Scattered Clouds
4:35 PM 87.3 °F - 52.0 °F 30% 30.24 in 10.0 mi SE 16.1 mph - N/A   Scattered Clouds
4:55 PM 87.4 °F - 50.7 °F 28% 30.24 in 10.0 mi SE 9.2 mph 17.3 mph N/A   Scattered Clouds
5:15 PM 87.3 °F - 52.3 °F 30% 30.24 in 10.0 mi SSE 11.5 mph 18.4 mph N/A   Scattered Clouds
5:35 PM 87.3 °F - 52.0 °F 30% 30.23 in 7.0 mi SE 10.4 mph - N/A   Clear
5:55 PM 86.2 °F - 52.7 °F 32% 30.23 in 10.0 mi SE 16.1 mph 19.6 mph N/A   Clear
6:15 PM 86.4 °F - 52.5 °F 31% 30.23 in 10.0 mi SE 6.9 mph 18.4 mph N/A   Clear
6:35 PM 86.2 °F - 52.7 °F 32% 30.23 in 10.0 mi ESE 15.0 mph 20.7 mph N/A   Clear
6:55 PM 85.3 °F 83.5 °F 53.4 °F 33% 30.23 in 10.0 mi ESE 11.5 mph 16.1 mph N/A   Scattered Clouds
7:15 PM 83.5 °F 82.2 °F 54.1 °F 36% 30.23 in 10.0 mi ESE 13.8 mph - N/A   Scattered Clouds
7:35 PM 82.8 °F 81.7 °F 54.1 °F 37% 30.24 in 10.0 mi ESE 13.8 mph - N/A   Clear
7:55 PM 81.5 °F 80.9 °F 54.3 °F 39% 30.24 in 10.0 mi ESE 15.0 mph 18.4 mph N/A   Clear
8:15 PM 80.2 °F 80.2 °F 54.5 °F 41% 30.25 in 10.0 mi ESE 15.0 mph - N/A   Clear
8:35 PM 79.7 °F - 54.7 °F 42% 30.25 in 10.0 mi ESE 11.5 mph - N/A   Clear
8:55 PM 79.2 °F - 55.0 °F 43% 30.27 in 10.0 mi SE 11.5 mph 18.4 mph N/A   Scattered Clouds
9:15 PM 78.8 °F - 54.5 °F 43% 30.28 in 10.0 mi ESE 10.4 mph - N/A   Mostly Cloudy
9:35 PM 78.1 °F - 54.0 °F 43% 30.28 in 10.0 mi SE 11.5 mph - N/A   Scattered Clouds
9:55 PM 77.2 °F - 53.1 °F 43% 30.28 in 10.0 mi ESE 9.2 mph - N/A   Clear
10:15 PM 76.5 °F - 52.7 °F 43% 30.29 in 10.0 mi ESE 11.5 mph - N/A   Clear
10:35 PM 76.1 °F - 54.0 °F 46% 30.29 in 10.0 mi ESE 9.2 mph - N/A   Clear
10:55 PM 75.4 °F - 55.0 °F 49% 30.29 in 10.0 mi ESE 8.1 mph - N/A   Clear
11:15 PM 74.7 °F - 55.0 °F 50% 30.30 in 10.0 mi East 4.6 mph - N/A   Clear
11:35 PM 73.8 °F - 55.4 °F 53% 30.30 in 10.0 mi SE 4.6 mph - N/A   Clear
11:55 PM 72.5 °F - 54.9 °F 54% 30.30 in 10.0 mi Calm Calm - N/A   Clear